Fort Worth Nas Jrb/Carswell field
KNFW : now visible

Airfield :











YOU CAN JOIN US ON...

 
LOGIN :

Register | Disclaimer

   EN    FR    IT 

 









Legend :    VFR   Marginal VFR   IFR   Intensive IFR   Very Intensive IFR
Visi :
Ceiling :
>= 8 km
>= 3000ft
5 to 8 km
1000 to 3000 ft
1500m to 5 km
500 to 1000 ft
800 to 1500m
200 to 500 ft
< 800m
< 200 ft
Symbols :   Thunderstorms  Fog  Heavy snow  Heavy precipitations  Wind > 20 kt






- Airport Elevation : 650 ft


KNFW - Fort Worth Nas Jrb/Carswell field

CURRENT METAR :
  • 232352Z AUTO 16012G19KT 10SM CLR 29/18 A2977 RMK AO2 SLP066 T02890183 10311 20289 55008 $

EXPIRED METARs :
  • 232252Z AUTO 16017G21KT 10SM CLR 30/18 A2977 RMK AO2 SLP065 T03000183 $
  • 232152Z 18016G23KT 10SM FEW045 FEW250 31/19 A2978 RMK AO2 SLP067 T03060189 $

TAF TAF KNFW
Valid from the 23 at 23:00 until the 24 at 23:00 UTC


2323/2423 19013G23KT 9999 FEW030 SCT250 QNH2975INS
BECMG 2400/2402 19015G25KT QNH2974INS
FM241200 19012KT 9999 OVC012 QNH2980INS
FM241800 20013G18KT 9999 SCT030 QNH2975INS AUTOMATED SENSOR METWATCH 2323 TIL 2411 T17/2411Z T30/2422Z FN00243
KZFW FIR / North America



MET'MAP, your aeronautical weather chart ! - Copyright ORBIFLY December 2007 - Disclaimer

ORBIFLY MET'MAP TEAM :

Programming & Development : Alexandra Zaïnal
Concept & original design : Baudouin d'Aumeries
Assistance for programming : Marc-Olivier Méhu
Technical & hardware support : Manuel Goepfert

Contact : metmap@orbifly.com




SOURCES & CREDITS :

   NOAA       Earth
Advisory